Temperature
21 21 22 21 18 17 19 20 21 21 21 21 21 20 19 18 18 17 18 18 18 18 18 18 18 18 18 18 18 18 18 18 18 18 18 18 18 18 18 18 18 18 18 18 18 18 18 18 18
22 22 22 21 17 18 19 20 21 22 22 22 21 20 19 19 18 18 18 18 18 18 18 18 18 18 18 18 18 18 18 18 18 18 18 18 18 18 18 18 18 18 18 18 18 18 18 18 18
22 22 21 17 18 18 20 20 21 22 23 22 21 20 20 19 19 18 18 18 18 18 18 18 18 18 18 18 18 18 18 18 18 18 18 18 18 18 18 18 18 18 18 18 18 18 18 18 18
22 21 21 18 19 20 20 21 22 22 22 22 21 19 19 19 19 19 18 18 18 18 18 18 18 18 18 18 18 18 18 18 18 18 18 18 17 17 18 18 18 18 17 17 17 17 18 18 18
22 21 18 18 20 21 21 22 22 21 21 21 20 19 19 19 19 19 18 18 18 18 18 18 18 18 18 17 17 18 17 17 18 18 18 17 17 18 18 18 17 17 17 17 17 17 17 17 17
22 19 18 19 20 21 22 23 22 21 21 20 20 19 18 19 19 19 18 18 18 18 18 18 18 18 17 17 17 17 17 17 17 17 17 17 17 17 17 17 17 17 17 17 17 17 17 17 17
21 18 19 20 20 21 22 23 22 21 21 21 20 18 18 19 19 19 18 18 18 18 18 18 18 17 17 17 17 17 17 17 17 17 17 17 17 17 17 17 17 17 17 17 17 17 17 17 17
22 18 19 20 20 21 23 23 23 22 21 21 21 19 18 19 19 19 18 18 18 18 18 18 18 17 17 17 17 17 17 17 17 17 17 17 17 17 17 17 17 17 17 17 17 17 17 17 17
22 18 19 20 21 21 23 22 23 23 22 22 21 21 20 19 19 19 18 18 18 18 18 18 17 17 17 17 17 17 17 17 17 17 17 17 17 17 17 17 16 17 17 17 17 17 17 16 16
21 18 20 21 22 22 22 22 23 22 21 20 20 20 20 19 19 19 19 18 18 18 18 18 18 17 17 17 17 17 17 17 17 17 17 17 17 17 16 16 16 16 16 16 16 16 16 16 16
21 20 21 22 23 23 23 23 22 21 19 20 20 20 20 19 19 19 19 19 18 18 18 18 18 18 17 17 17 17 17 17 16 16 17 16 16 16 16 16 16 16 16 16 16 16 16 16 16
21 21 22 23 23 23 23 23 22 21 21 22 21 21 20 19 19 19 19 19 19 18 18 18 18 18 17 17 17 17 17 16 16 16 16 16 16 16 16 16 16 16 16 16 16 16 16 16 16
21 21 22 23 23 23 23 22 22 21 22 21 21 21 20 20 20 19 19 19 19 19 18 18 18 18 17 17 17 17 17 16 16 16 16 16 16 16 16 16 16 16 16 16 16 16 16 16 16
22 22 22 23 23 23 22 21 21 21 21 21 21 21 20 20 20 20 19 19 19 19 18 18 18 18 17 17 17 17 17 16 16 16 16 16 16 16 16 16 16 16 16 16 16 16 16 16 16
23 21 21 21 22 22 22 20 20 21 21 21 21 21 20 20 20 20 20 19 19 19 19 18 18 18 17 17 17 17 17 17 16 16 16 16 16 16 16 16 16 16 16 16 16 16 16 16 16
21 20 20 21 21 22 21 19 20 21 21 20 20 21 20 20 20 20 20 19 19 19 19 18 18 18 17 17 17 17 17 16 16 16 16 16 16 16 16 16 15 15 15 15 15 15 15 15 15
19 19 19 20 21 21 20 19 20 21 20 20 20 20 20 20 20 20 20 20 19 19 19 18 18 18 17 17 17 17 17 16 16 16 16 16 16 16 16 15 15 15 15 15 15 15 15 15 15
19 19 20 20 21 20 19 18 19 20 20 19 20 20 20 20 20 20 19 19 19 19 19 18 18 18 17 17 17 17 17 16 16 16 16 16 16 16 16 15 15 15 15 15 15 15 15 15 15
20 20 20 20 21 20 19 18 18 19 19 19 19 19 19 19 19 19 19 19 19 19 19 18 18 18 17 17 17 17 16 16 16 16 16 16 16 15 15 15 15 15 15 15 15 15 15 15 15
20 20 20 20 21 20 18 18 18 18 19 19 19 19 19 19 19 19 19 19 19 19 19 18 18 18 18 17 17 17 16 16 16 16 16 16 15 15 15 15 15 15 15 15 14 14 14 14 14
20 20 20 20 20 20 19 18 18 18 19 19 19 19 19 19 19 19 19 19 19 19 19 18 18 18 18 17 17 17 16 16 16 16 16 16 15 15 15 15 15 15 15 14 14 14 14 14 14
20 21 21 21 19 18 19 17 17 17 17 18 18 19 19 19 19 19 19 19 19 19 18 18 18 18 18 17 17 17 17 16 16 16 16 16 15 15 15 15 15 15 15 14 14 14 14 14 14
20 21 21 20 19 18 18 17 17 17 17 17 17 18 18 19 19 19 19 19 19 18 18 18 18 18 17 17 17 17 17 17 16 16 16 15 15 15 15 15 15 15 15 14 14 14 14 14 14
21 20 19 17 17 17 18 17 17 16 17 17 17 18 18 19 19 19 19 19 18 18 18 18 18 18 17 17 17 17 17 16 16 16 16 16 15 15 15 15 15 15 14 14 14 14 14 14 14
20 17 17 17 16 16 18 18 17 17 18 18 18 18 19 19 18 18 18 18 18 18 18 17 17 17 17 17 17 16 16 16 16 16 16 16 15 15 15 15 15 14 14 14 14 14 14 14 14
19 18 16 17 16 16 17 17 17 18 19 19 19 19 19 18 18 18 18 18 18 18 18 17 17 17 17 16 16 16 16 16 16 16 16 15 15 15 15 15 14 14 14 14 14 14 14 14 13
20 18 17 16 17 16 16 17 18 18 18 18 18 18 18 18 18 18 18 18 18 18 17 17 17 17 16 16 16 16 16 16 15 15 15 15 15 15 15 15 14 14 14 14 14 14 14 14 13
20 18 16 16 16 16 17 17 16 18 17 17 17 17 18 18 18 18 18 18 18 18 17 17 17 17 16 16 16 16 16 15 15 15 15 15 15 15 15 14 14 14 14 14 14 14 13 13 13
19 19 17 15 15 15 16 16 18 17 17 17 17 17 18 18 18 18 18 18 17 17 17 17 16 16 16 16 16 15 15 15 15 15 15 15 15 14 14 14 14 14 14 14 14 13 13 13 13
19 19 17 16 16 15 15 16 18 18 17 17 17 18 18 18 18 18 18 17 17 17 16 16 16 16 16 15 15 15 15 15 15 15 15 14 14 14 14 14 14 14 14 13 13 13 13 13 13
Wind_Speed
4 3 3 4 6 6 3 1 3 4 5 5 8 10 8 6 5 5 2 6 9 6 6 7 8 8 9 10 10 10 11 11 12 12 12 13 13 12 12 13 13 13 13 13 13 13 13 13 13
2 2 4 5 6 5 2 1 5 5 6 8 8 8 8 6 4 6 4 7 9 8 7 7 9 9 9 10 10 11 11 11 12 12 12 12 12 12 12 12 12 12 12 12 13 13 12 13 13
1 2 4 5 4 5 4 3 6 5 6 6 5 6 5 5 4 4 6 10 9 7 7 8 9 9 9 9 10 10 10 11 11 11 12 12 12 12 12 12 12 11 12 12 12 12 12 12 12
3 5 5 5 4 4 6 5 6 7 6 6 7 6 4 3 5 6 10 10 9 6 7 8 9 9 9 9 10 10 10 10 11 11 12 12 12 12 12 12 12 11 11 11 11 11 11 12 12
4 5 6 4 3 1 3 5 6 8 5 6 8 6 4 3 8 11 11 10 9 6 6 8 9 9 8 9 9 10 10 10 11 11 11 11 11 11 11 11 11 11 11 10 10 10 11 11 11
4 5 5 3 3 2 2 5 8 9 8 7 8 6 3 3 8 10 10 8 8 7 6 8 9 9 8 8 8 9 10 10 11 11 11 11 11 11 11 11 11 11 10 10 9 9 10 10 10
5 4 3 4 4 3 3 5 7 8 7 6 8 6 4 3 6 9 9 8 8 7 6 5 7 7 7 6 8 9 10 10 10 10 10 10 10 10 10 10 10 10 10 9 9 9 9 10 10
5 5 3 2 4 2 2 4 6 9 6 7 6 8 6 6 6 8 8 8 7 6 5 5 5 5 5 6 9 10 10 10 9 9 9 9 9 9 9 8 8 8 9 9 9 9 9 9 10
4 5 2 2 4 3 3 6 3 5 7 4 4 6 8 10 9 8 7 5 6 6 4 4 4 4 5 6 7 8 8 8 8 8 8 8 6 6 6 7 7 7 8 8 8 8 8 8 8
5 3 2 2 5 4 4 6 4 5 7 5 6 6 10 11 10 10 9 7 6 6 5 4 4 4 4 5 5 5 5 5 6 6 6 6 5 5 5 6 6 7 8 8 8 8 8 7 6
3 3 1 1 3 5 4 4 4 8 5 7 11 12 12 10 9 9 8 8 7 7 7 6 5 5 4 3 5 4 4 4 5 5 6 5 5 4 4 4 4 5 6 6 7 7 6 6 6
3 1 2 1 2 4 3 3 4 5 6 10 13 15 12 11 11 10 9 7 6 7 7 6 6 5 4 4 4 4 3 3 3 4 5 5 3 3 3 2 3 4 4 5 5 5 6 6 6
2 1 1 2 3 3 4 4 4 2 4 9 11 12 11 11 9 8 8 7 7 7 7 7 7 6 4 4 3 4 3 3 4 5 5 6 4 3 2 2 3 3 4 4 4 4 5 5 5
4 3 1 1 2 2 5 2 4 2 7 10 11 11 10 10 9 7 7 7 7 7 7 6 7 6 6 4 3 3 4 4 5 5 5 6 6 4 3 2 2 3 4 5 5 4 4 4 4
2 3 2 1 2 2 5 3 2 4 8 10 10 9 9 8 8 10 9 8 8 8 7 7 8 7 6 5 4 4 4 5 4 4 5 6 7 6 4 3 2 2 4 5 5 5 4 4 4
3 3 0 4 2 3 6 3 4 3 8 8 8 8 7 6 7 8 8 8 7 7 7 7 8 7 6 5 4 4 4 4 4 4 5 6 7 7 5 3 2 3 5 4 3 3 4 3 3
3 1 2 3 2 3 5 4 4 4 7 7 7 7 6 5 4 5 7 8 8 8 8 7 7 8 6 5 4 4 4 4 4 5 5 5 6 7 6 3 3 4 4 3 3 3 3 3 2
3 3 2 3 3 4 4 3 3 4 6 6 6 7 7 7 6 6 6 7 7 6 6 7 7 7 6 5 4 3 3 2 3 3 4 5 5 6 6 4 3 4 3 3 3 3 3 2 2
4 3 3 4 3 3 4 3 4 4 4 5 5 6 7 7 6 6 6 7 7 6 6 5 6 6 6 4 4 3 2 1 1 1 3 5 5 6 5 4 3 3 3 3 3 3 3 2 2
3 2 2 3 2 3 3 4 4 4 7 8 8 8 8 7 5 5 6 6 7 7 6 6 6 6 6 5 4 3 3 2 2 1 1 3 4 5 6 5 3 3 3 3 3 3 3 1 2
4 5 5 4 1 2 3 3 5 4 4 6 7 7 8 10 9 8 6 6 6 6 6 7 6 6 5 5 3 3 3 3 1 0 1 1 3 4 5 5 4 4 3 3 3 3 4 2 1
3 5 5 4 2 2 3 3 6 4 3 5 6 6 7 7 7 7 7 6 7 7 7 7 7 6 5 5 5 5 4 3 4 3 2 2 2 4 4 4 4 4 3 3 3 3 3 3 2
5 4 3 3 3 1 2 3 6 3 5 7 8 8 8 7 8 8 8 8 7 7 7 6 6 6 5 5 6 6 4 4 2 2 2 2 2 2 3 4 4 4 4 4 3 3 3 3 3
3 2 4 4 3 2 5 5 6 5 9 7 8 8 9 8 7 7 6 6 5 4 5 5 6 5 5 5 5 5 5 4 3 3 3 3 2 2 2 3 3 4 4 4 4 3 4 3 3
5 5 3 4 2 5 3 4 7 7 7 9 10 9 8 8 8 7 6 6 5 5 5 5 6 4 4 4 4 5 5 6 6 5 5 4 3 2 3 3 3 3 3 4 3 3 3 4 3
3 8 6 4 4 5 2 4 6 5 3 5 7 8 7 7 8 8 8 8 7 6 5 5 5 4 3 4 4 4 5 4 4 4 4 5 4 4 4 4 3 3 3 3 3 3 3 3 3
4 4 7 6 1 2 4 4 5 2 2 4 6 6 7 8 8 8 7 7 6 6 6 6 6 4 4 4 4 3 3 4 4 4 4 3 3 4 4 4 4 3 3 3 3 2 3 2 3
5 6 5 4 2 3 4 4 4 5 4 4 5 6 6 7 7 8 7 7 6 6 6 5 5 5 4 4 4 3 3 3 3 4 3 3 3 3 4 4 4 3 3 3 3 2 2 3 2
2 2 4 4 4 4 3 6 5 8 8 7 7 7 7 7 8 8 7 6 5 5 5 4 4 3 3 3 3 3 3 2 2 2 3 4 3 4 5 5 4 4 3 3 3 3 3 3 2
5 6 6 4 4 4 4 7 5 6 7 7 6 5 6 7 7 7 7 6 5 5 4 4 4 4 4 4 3 3 3 3 2 2 3 3 3 3 4 4 4 4 4 3 3 3 3 3 2
Wind_Direction
313 346 80 59 56 57 73 60 116 75 63 66 77 85 85 69 91 129 192 136 134 133 125 110 101 97 96 97 96 95 95 93 91 91 90 91 90 88 89 90 91 92 92 90 88 87 85 84 85
342 41 63 60 81 83 44 117 97 99 129 113 83 82 81 75 90 114 124 138 134 131 127 115 108 101 100 99 96 96 96 97 95 94 95 95 93 90 90 91 91 93 92 90 90 87 87 85 83
346 67 78 69 95 136 148 171 123 95 106 101 82 61 79 110 109 131 150 142 130 125 127 120 114 108 104 103 101 99 99 101 100 97 97 96 96 94 91 91 91 92 92 92 91 87 87 87 83
63 46 59 80 109 170 159 174 125 97 73 71 96 66 55 90 131 137 135 134 130 128 131 125 120 114 110 109 107 104 103 105 104 100 98 97 96 93 91 90 90 91 93 92 93 91 88 87 83
66 73 68 80 107 134 143 145 113 104 97 87 94 92 62 36 113 128 133 135 132 134 134 133 126 120 117 115 113 111 108 107 106 103 101 99 97 94 91 92 93 91 92 93 92 91 91 89 84
56 70 87 100 102 102 113 117 104 100 107 106 102 108 112 135 125 138 140 137 137 138 136 134 130 128 124 120 121 119 115 112 109 106 102 99 97 96 95 97 96 94 93 95 94 91 93 92 87
101 91 119 129 113 101 124 117 117 124 127 133 128 108 131 174 152 145 138 133 132 132 126 125 131 130 128 122 125 126 119 114 110 107 105 99 96 95 96 97 96 93 90 90 94 95 93 90 88
121 99 78 98 119 132 140 118 129 126 125 132 121 132 161 193 159 135 126 124 127 133 133 128 126 123 118 116 122 125 119 115 111 105 105 102 98 96 96 97 95 93 89 85 88 92 90 88 89
86 78 94 151 147 157 131 102 89 104 108 101 110 150 164 158 139 124 118 114 127 138 140 141 135 130 122 119 119 122 119 114 108 105 107 102 93 95 94 94 91 90 87 87 87 83 84 85 82
87 112 201 199 159 146 128 120 119 86 88 86 87 108 134 140 140 137 140 145 147 154 159 152 153 155 142 126 115 114 115 111 106 108 103 102 101 102 99 91 86 82 81 83 83 80 80 80 76
123 160 198 93 129 123 113 101 99 113 126 158 153 152 151 148 149 151 157 160 162 161 160 160 160 153 141 124 123 111 113 111 105 113 117 112 102 94 85 76 64 60 64 66 69 70 76 87 92
120 210 172 146 104 112 122 119 102 143 183 175 162 158 156 157 162 165 168 170 158 152 160 161 155 145 144 129 124 126 120 114 111 120 128 121 114 99 88 74 63 61 64 63 62 73 79 86 90
140 190 157 146 109 111 111 118 128 150 156 151 148 153 160 168 170 167 170 165 150 152 158 160 155 150 144 126 128 122 127 133 132 128 137 132 125 118 112 94 76 71 73 73 69 73 82 86 91
189 167 127 110 119 125 115 102 105 178 144 145 151 164 172 173 165 155 158 157 155 154 154 156 151 148 137 132 126 130 124 125 121 124 131 134 130 126 118 96 78 76 82 87 87 87 89 85 87
144 109 35 314 160 145 106 57 196 191 151 152 164 170 167 167 159 160 165 166 163 155 148 148 148 139 138 138 138 127 118 116 113 119 121 128 131 127 121 109 96 93 98 92 87 79 80 77 74
61 67 19 270 180 162 129 197 251 187 144 155 170 169 158 159 164 166 159 156 159 150 141 146 146 140 143 140 134 120 115 111 109 111 112 119 130 133 123 114 113 116 100 90 88 76 79 74 74
39 148 225 269 211 149 141 200 243 177 146 160 169 165 155 149 157 165 158 156 156 154 144 143 140 146 145 138 125 113 110 108 110 108 109 115 125 127 123 120 120 115 96 82 97 88 100 99 83
211 204 207 225 224 142 150 207 227 187 157 166 172 167 164 164 179 170 160 156 148 149 144 143 138 140 136 126 113 98 90 91 94 105 116 118 126 126 119 118 116 112 101 87 90 93 84 101 104
188 191 220 244 214 147 168 204 224 205 170 176 179 173 167 178 186 162 157 155 142 143 138 143 143 148 142 140 137 134 147 151 133 133 132 125 132 134 122 117 119 117 124 130 122 110 94 73 86
199 211 250 265 226 158 180 229 240 203 191 189 186 181 179 177 165 166 163 151 151 157 154 148 157 162 162 163 167 164 159 168 176 142 130 139 139 145 138 134 144 141 127 119 123 117 111 97 93
211 193 211 209 275 54 113 307 280 256 207 189 185 184 180 176 172 176 168 159 152 160 166 166 167 164 168 159 134 112 84 67 64 117 197 191 154 155 149 147 148 152 145 155 160 144 135 143 98
221 223 204 179 127 243 161 242 268 242 219 201 196 190 188 184 171 168 164 162 170 179 178 169 169 165 163 150 148 152 157 174 205 201 198 200 164 156 158 155 156 160 160 165 177 163 152 143 160
208 228 208 196 168 250 219 187 271 217 220 221 206 194 190 187 173 170 173 175 178 176 172 167 160 162 166 164 165 164 171 192 188 172 180 194 200 171 161 161 160 168 171 175 173 155 155 158 166
168 38 21 47 84 262 229 185 261 222 212 208 202 194 188 182 177 176 178 170 164 156 152 155 158 167 174 173 168 171 180 182 169 179 188 200 203 203 183 164 164 173 176 182 184 176 170 175 173
93 86 31 359 1 253 247 189 242 240 217 196 191 191 186 177 175 175 172 164 157 156 158 155 154 168 178 181 183 185 188 183 186 192 191 188 188 199 202 178 172 175 183 184 178 174 182 179 177
171 145 159 198 228 277 307 228 255 259 205 172 169 177 177 175 177 177 180 173 167 161 160 156 157 172 179 186 197 199 191 185 191 194 189 193 195 197 192 182 177 177 177 176 171 176 191 182 188
155 176 176 154 239 280 285 288 311 5 100 141 152 169 180 183 183 181 178 172 168 164 166 166 167 179 187 189 188 188 189 187 192 197 195 197 197 190 181 180 179 180 175 168 163 169 188 181 192
164 156 102 129 186 264 283 255 241 229 209 184 167 174 187 183 184 181 178 176 175 175 174 169 169 179 187 187 190 188 193 198 190 180 191 196 200 191 176 183 182 179 174 167 159 168 180 166 189
158 149 137 145 166 177 256 267 234 208 196 189 193 189 182 183 181 181 179 177 172 164 163 169 177 172 171 183 193 186 192 196 178 179 197 203 202 191 183 182 181 182 181 174 161 171 166 170 193
185 188 160 169 229 191 203 265 279 197 187 184 188 193 188 180 177 171 170 165 165 168 169 174 180 176 180 179 176 184 183 178 185 207 210 196 196 195 190 180 172 176 178 169 167 179 172 169 180
Height
1507 1506 1506 1507 1511 1523 1526 1519 1514 1512 1513 1513 1513 1514 1518 1521 1525 1532 1529 1527 1527 1527 1526 1526 1525 1524 1524 1523 1523 1523 1523 1522 1522 1522 1522 1522 1522 1521 1522 1522 1522 1521 1521 1521 1522 1522 1522 1522 1522
1507 1507 1508 1508 1520 1533 1529 1518 1514 1512 1513 1513 1515 1517 1519 1523 1524 1526 1527 1528 1528 1527 1527 1526 1526 1525 1525 1524 1524 1523 1523 1523 1523 1523 1523 1523 1523 1523 1523 1523 1523 1523 1523 1523 1523 1523 1524 1524 1524
1507 1507 1509 1512 1523 1530 1525 1516 1512 1512 1512 1513 1517 1519 1522 1525 1526 1527 1527 1528 1528 1528 1528 1527 1526 1526 1525 1525 1524 1524 1524 1524 1524 1524 1524 1524 1524 1524 1524 1524 1524 1524 1524 1524 1524 1525 1525 1525 1525
1507 1509 1510 1518 1523 1518 1515 1513 1511 1513 1514 1515 1517 1522 1524 1526 1526 1527 1528 1529 1529 1528 1528 1528 1527 1526 1526 1525 1525 1525 1525 1525 1526 1525 1525 1525 1526 1525 1525 1525 1525 1525 1525 1526 1526 1526 1526 1527 1527
1507 1509 1516 1523 1520 1515 1511 1511 1511 1513 1515 1517 1518 1523 1526 1528 1528 1528 1529 1529 1529 1529 1529 1528 1528 1527 1526 1526 1525 1526 1526 1526 1527 1527 1527 1527 1527 1527 1527 1527 1527 1527 1527 1527 1527 1528 1528 1528 1528
1509 1510 1524 1528 1520 1514 1512 1511 1512 1514 1517 1519 1520 1524 1528 1529 1529 1529 1530 1530 1530 1530 1529 1529 1529 1528 1527 1525 1525 1525 1527 1527 1528 1528 1528 1528 1528 1528 1528 1529 1529 1529 1529 1529 1529 1529 1529 1529 1530
1510 1515 1522 1522 1520 1517 1513 1512 1512 1515 1517 1519 1520 1524 1528 1530 1530 1530 1531 1531 1531 1531 1530 1530 1529 1528 1526 1523 1522 1524 1527 1528 1529 1529 1530 1530 1530 1530 1530 1530 1530 1530 1530 1530 1530 1531 1531 1531 1531
1509 1514 1520 1521 1520 1518 1513 1512 1513 1514 1517 1520 1520 1523 1527 1529 1530 1531 1531 1531 1532 1532 1532 1531 1530 1529 1527 1524 1523 1525 1528 1530 1531 1531 1531 1531 1532 1532 1532 1532 1532 1532 1532 1532 1532 1532 1532 1532 1532
1510 1519 1524 1520 1518 1516 1512 1513 1515 1516 1517 1519 1520 1521 1524 1527 1529 1531 1531 1532 1532 1533 1533 1532 1531 1531 1529 1528 1527 1529 1530 1532 1532 1533 1533 1533 1533 1533 1533 1533 1533 1533 1533 1533 1533 1533 1533 1534 1534
1511 1521 1518 1513 1512 1512 1512 1513 1515 1517 1519 1520 1522 1523 1525 1527 1529 1530 1531 1531 1532 1533 1533 1533 1533 1532 1532 1531 1531 1532 1533 1533 1534 1534 1534 1534 1535 1535 1535 1535 1535 1535 1534 1534 1534 1534 1534 1535 1535
1511 1515 1512 1511 1511 1511 1512 1514 1515 1517 1520 1520 1520 1522 1525 1527 1529 1530 1531 1531 1532 1533 1533 1534 1534 1534 1533 1533 1533 1534 1534 1535 1535 1535 1536 1536 1536 1536 1536 1536 1536 1536 1536 1535 1535 1535 1536 1536 1536
1511 1511 1511 1511 1511 1511 1513 1514 1516 1516 1518 1518 1519 1521 1524 1526 1528 1529 1530 1531 1532 1533 1534 1534 1535 1535 1535 1535 1535 1535 1536 1536 1536 1536 1537 1537 1537 1537 1537 1537 1537 1537 1537 1536 1536 1536 1537 1537 1537
1511 1511 1511 1511 1511 1512 1513 1514 1515 1516 1517 1518 1520 1522 1524 1525 1527 1529 1530 1531 1532 1533 1534 1534 1535 1535 1536 1536 1536 1536 1537 1537 1537 1537 1537 1538 1538 1538 1538 1538 1538 1538 1538 1537 1537 1537 1538 1538 1538
1510 1510 1511 1511 1511 1512 1513 1515 1516 1517 1517 1519 1520 1522 1523 1525 1526 1528 1530 1531 1532 1533 1533 1534 1535 1536 1536 1537 1537 1537 1537 1537 1538 1538 1538 1538 1538 1539 1539 1538 1539 1538 1538 1538 1538 1539 1539 1539 1539
1510 1512 1513 1512 1512 1513 1514 1519 1517 1516 1517 1518 1520 1522 1523 1525 1526 1527 1529 1530 1531 1532 1533 1534 1535 1536 1537 1537 1537 1538 1538 1538 1538 1538 1538 1539 1539 1539 1539 1539 1539 1539 1539 1539 1539 1539 1539 1540 1540
1511 1516 1522 1515 1512 1513 1518 1526 1518 1516 1517 1518 1519 1521 1522 1524 1526 1527 1528 1529 1531 1532 1533 1534 1535 1536 1536 1537 1537 1538 1538 1538 1539 1539 1539 1539 1539 1540 1539 1539 1539 1539 1539 1539 1539 1539 1540 1540 1540
1519 1526 1524 1518 1512 1513 1517 1522 1516 1516 1516 1517 1518 1520 1522 1524 1526 1527 1528 1529 1530 1532 1533 1534 1534 1535 1536 1537 1537 1538 1538 1538 1539 1539 1539 1539 1539 1540 1540 1539 1540 1540 1540 1540 1540 1540 1540 1540 1540
1525 1524 1522 1520 1513 1513 1518 1519 1516 1515 1516 1517 1517 1519 1520 1522 1524 1525 1527 1528 1529 1531 1532 1533 1534 1535 1536 1536 1537 1538 1538 1538 1539 1539 1539 1539 1539 1539 1539 1539 1539 1539 1540 1540 1540 1540 1540 1540 1540
1515 1519 1521 1517 1511 1514 1519 1519 1517 1515 1515 1516 1517 1517 1519 1521 1523 1525 1526 1527 1528 1530 1531 1532 1533 1534 1535 1536 1536 1536 1537 1537 1538 1539 1539 1539 1539 1539 1539 1539 1539 1539 1539 1539 1540 1540 1540 1540 1540
1513 1519 1520 1516 1510 1514 1519 1519 1515 1514 1514 1514 1515 1516 1517 1519 1522 1523 1525 1526 1527 1528 1530 1531 1532 1533 1534 1535 1535 1536 1536 1537 1537 1538 1538 1538 1539 1538 1538 1538 1538 1539 1539 1539 1539 1539 1540 1540 1540
1513 1516 1517 1517 1513 1513 1519 1523 1518 1513 1512 1513 1513 1515 1516 1517 1518 1521 1523 1524 1526 1527 1529 1530 1531 1532 1533 1534 1534 1535 1535 1536 1536 1536 1537 1537 1537 1538 1538 1538 1538 1538 1538 1538 1538 1539 1539 1540 1540
1515 1507 1509 1511 1520 1526 1522 1536 1521 1514 1513 1512 1512 1513 1514 1516 1517 1519 1520 1522 1524 1525 1527 1528 1529 1530 1532 1532 1533 1533 1533 1534 1534 1535 1535 1536 1536 1536 1536 1536 1537 1537 1537 1538 1538 1538 1539 1539 1539
1507 1504 1507 1510 1517 1525 1523 1532 1525 1514 1514 1511 1509 1510 1511 1513 1515 1516 1518 1520 1522 1524 1525 1526 1527 1528 1530 1531 1531 1532 1532 1532 1533 1533 1534 1534 1534 1535 1535 1535 1535 1536 1536 1536 1537 1537 1538 1538 1538
1501 1506 1510 1516 1522 1534 1523 1529 1526 1516 1509 1506 1506 1507 1508 1511 1513 1514 1516 1518 1520 1522 1523 1524 1525 1526 1527 1528 1529 1529 1530 1530 1530 1531 1531 1532 1532 1533 1533 1533 1533 1534 1534 1535 1535 1536 1536 1537 1537
1505 1521 1535 1536 1541 1537 1519 1522 1519 1504 1499 1499 1501 1503 1505 1508 1510 1512 1514 1516 1517 1519 1521 1522 1523 1524 1525 1526 1527 1527 1527 1528 1528 1528 1529 1529 1530 1530 1530 1531 1531 1532 1532 1533 1533 1534 1534 1535 1535
1506 1516 1535 1544 1544 1535 1520 1522 1511 1498 1496 1496 1498 1500 1503 1506 1508 1510 1511 1513 1515 1517 1518 1519 1520 1521 1522 1523 1524 1524 1525 1525 1525 1526 1526 1527 1527 1528 1528 1529 1529 1529 1530 1531 1531 1531 1532 1532 1533
1506 1513 1514 1528 1529 1534 1527 1517 1505 1498 1497 1497 1498 1500 1501 1503 1505 1507 1509 1511 1513 1514 1516 1517 1518 1519 1519 1520 1521 1521 1522 1522 1522 1523 1524 1524 1525 1525 1526 1526 1527 1527 1528 1528 1529 1529 1529 1530 1530
1499 1505 1519 1526 1535 1540 1528 1521 1516 1503 1500 1499 1499 1499 1499 1501 1503 1505 1507 1509 1510 1512 1513 1515 1516 1516 1517 1517 1518 1518 1519 1519 1519 1520 1520 1521 1522 1522 1523 1523 1524 1524 1525 1525 1526 1526 1527 1527 1528
1502 1506 1512 1523 1527 1536 1536 1524 1498 1497 1496 1497 1497 1497 1498 1499 1500 1502 1504 1506 1508 1509 1511 1512 1513 1513 1514 1514 1515 1516 1516 1516 1517 1517 1517 1518 1519 1519 1520 1520 1521 1521 1522 1522 1523 1523 1524 1524 1525
1497 1501 1509 1523 1524 1525 1530 1521 1492 1491 1492 1493 1494 1495 1496 1497 1499 1500 1502 1504 1506 1507 1508 1509 1510 1510 1511 1512 1512 1512 1513 1513 1513 1514 1514 1515 1516 1516 1517 1517 1518 1518 1519 1519 1520 1520 1521 1521 1522